Location: Newark
(40.3500°N, 15.2333°E)
Time: 19:46:33
(UTC+00:00)

Vanguard 1 - Pass Details

Date: 29 January 2020
Orbit: 650 x 3833 km, 34.2° (Epoch: 22 February)

Event Time Altitude Azimuth Distance (km) Brightness Sun altitude
Rises 18:56:53 0° 266° (W) 3,022 13.7 -31.3°
Reaches altitude 10° 18:59:17 10° 252° (WSW) 2,227 12.7 -31.7°
Enters shadow 19:03:11 25° 199° (SSW) 1,682 11.3 -32.5°
Maximum altitude 19:03:25 26° 195° (SSW) 1,697 - -32.5°
Drops below altitude 10° 19:09:07 10° 142° (SE) 3,162 - -33.6°
Sets 19:13:18 0° 132° (SE) 4,642 - -34.4°
